Regional Weather Roundup
Issued by NWS

Home | Current Version | Previous Version | Text Only | Print | Product List | Glossary Off
Versions: 1 2 3 4 5 6 7 8 9 10 11 12 13 14 15 16 17 18 19 20 21 22 23 24 25 26 27 28 29 30 31 32 33 34 35 36 37 38 39 40 41 42 43 44 45 46 47 48 49 50

000
ASUS43 KMKX 250628
RWRWI

WISCONSIN REGIONAL WEATHER ROUNDUP
NATIONAL WEATHER SERVICE MILWAUKEE/SULLIVAN WI
100 AM CDT MON MAY 25 2015

NOTE: "FAIR" INDICATES FEW OR NO CLOUDS BELOW 12,000 FEET WITH NO
SIGNIFICANT WEATHER AND/OR OBSTRUCTIONS TO VISIBILITY.

WIZ001-002-006>008-014>016-023>028-250700-
NORTHWEST WISCONSIN

CITY           SKY/WX    TMP DP  RH WIND       PRES   REMARKS
SUPERIOR ARPT  LGT RAIN  51  50  97 E5        29.87F
6HR MIN TEMP:  51; 6HR MAX TEMP:  66; 6HR PCP:  0.13;

ASHLAND        CLOUDY    58  58 100 NE6       29.88F FOG
6HR MIN TEMP:  57; 6HR MAX TEMP:  68; 6HR PCP:  0.17;

HAYWARD        LGT RAIN  58  55  90 E6        29.85F
6HR MIN TEMP:  58; 6HR MAX TEMP:  60; 6HR PCP:  0.19;

SIREN          DRIZZLE   57  56  96 E7        29.81F
6HR MIN TEMP:  57; 6HR MAX TEMP:  59; 6HR PCP:  0.19;

CUMBERLAND     DRIZZLE   55  54  94 E8        29.81F
RICE LAKE      DRIZZLE   57  55  92 E8        29.83F
6HR MIN TEMP:  57; 6HR MAX TEMP:  58; 6HR PCP:  0.25;

CHETEK         LGT RAIN  56  56  97 E7G16     29.82F
6HR MIN TEMP:  56; 6HR MAX TEMP:  58; 6HR PCP:  0.31;

LADYSMITH      LGT RAIN  57  56  97 E7        29.85F
6HR MIN TEMP:  57; 6HR MAX TEMP:  59; 6HR PCP:  0.61;

EAU CLAIRE     LGT RAIN  57  55  93 E8        29.79F
6HR MIN TEMP:  57; 6HR MAX TEMP:  58; 6HR PCP:  0.18;

MENOMONIE      DRIZZLE   57  56  97 E7        29.80F
6HR MIN TEMP:  57; 6HR MAX TEMP:  59; 6HR PCP:  0.18;

NEW RICHMOND   DRIZZLE   57  57 100 E12G21    29.78F
6HR MIN TEMP:  57; 6HR MAX TEMP:  58; 6HR PCP:  0.20;

OSCEOLA        RAIN      58  58 100 E9        29.80F
6HR MIN TEMP:  58; 6HR MAX TEMP:  59; 6HR PCP:  0.11;

$$

WIZ003>005-009-010-017-018-250700-
NORTH CENTRAL WISCONSIN

CITY           SKY/WX    TMP DP  RH WIND       PRES   REMARKS
MANITOWISH WTR DRIZZLE   56  56 100 E7        29.89F
6HR MIN TEMP:  56; 6HR MAX TEMP:  57; 6HR PCP:  0.18;

ARBOR VITAE    RAIN      57  55  95 E6        29.89F
6HR MIN TEMP:  57; 6HR MAX TEMP:  59; 6HR PCP:  0.08;

WOODRUFF       RAIN      57  55  95 E6        29.89F
6HR MIN TEMP:  57; 6HR MAX TEMP:  59; 6HR PCP:  0.08;

RHINELANDER    LGT RAIN  56  54  93 E10       29.89F
6HR MIN TEMP:  55; 6HR MAX TEMP:  57; 6HR PCP:  0.46;

EAGLE RIVER    RAIN      55  55  99 E6        29.90F
6HR MIN TEMP:  55; 6HR MAX TEMP:  57; 6HR PCP:  0.27;

LAND O LAKES   RAIN      56  56  98 E7        29.92F
6HR MIN TEMP:  56; 6HR MAX TEMP:  61; 6HR PCP:  0.12;

PHILLIPS       LGT RAIN  55  55  99 E7        29.86F
6HR MIN TEMP:  55; 6HR MAX TEMP:  57; 6HR PCP:  0.39;

TOMAHAWK       RAIN      55  54  96 E5        29.88F
6HR MIN TEMP:  55; 6HR MAX TEMP:  56;

MEDFORD        RAIN      54  54  99 E8        29.84F
6HR MIN TEMP:  54; 6HR MAX TEMP:  56; 6HR PCP:  0.52;

MERRILL        LGT RAIN  56  56 100 E6        29.88F
$$

WIZ029-030-035-036-043>047-250700-
CENTRAL WISCONSIN

CITY           SKY/WX    TMP DP  RH WIND       PRES   REMARKS
WAUSAU         HVY RAIN  55  54  96 E8        29.84F FOG
6HR MIN TEMP:  55; 6HR MAX TEMP:  57; 6HR PCP:  0.52;

MOSINEE        CLOUDY    54  54 100 E8        29.87F
MARSHFIELD     CLOUDY    57  54  89 E10       29.84F
6HR MIN TEMP:  56; 6HR MAX TEMP:  57; 6HR PCP:  0.08;

STEVENS POINT  CLOUDY    54  53  98 E9        29.86F
6HR MIN TEMP:  53; 6HR MAX TEMP:  55; 6HR PCP:  0.12;

WAUPACA        CLOUDY    58  58  97 E5        29.87F FOG
6HR MIN TEMP:  57; 6HR MAX TEMP:  58; 6HR PCP:  0.24;

WAUTOMA        CLOUDY    58  58 100 CALM      29.86F FOG
6HR MIN TEMP:  56; 6HR MAX TEMP:  58; 6HR PCP:  0.07;

WISC RAPIDS    LGT RAIN  57  54  89 SE7       29.85F
6HR MIN TEMP:  56; 6HR MAX TEMP:  57; 6HR PCP:  0.09;

CAMP DOUGLAS   CLOUDY    57  57 100 SE10      29.80F FOG
6HR MIN TEMP:  56; 6HR MAX TEMP:  57; 6HR PCP:  0.01;

$$

WIZ011>013-019>022-031-037>040-048>050-250700-
NORTHEAST WISCONSIN

CITY           SKY/WX    TMP DP  RH WIND       PRES   REMARKS
ANTIGO         RAIN      54  54  99 SE14      29.89F
SHAWANO        LGT RAIN  58  56  95 E6        29.90F
6HR MIN TEMP:  57; 6HR MAX TEMP:  60; 6HR PCP:  0.46;

OCONTO         CLOUDY    56  56 100 E3        29.91F
6HR MIN TEMP:  54; 6HR MAX TEMP:  57; 6HR PCP:  0.41;

STURGEON BAY   CLOUDY    57  54  88 E12G17    29.93F
6HR MIN TEMP:  54; 6HR MAX TEMP:  57;

GREEN BAY      LGT RAIN  59  57  93 SE6       29.89F FOG
6HR MIN TEMP:  56; 6HR MAX TEMP:  59; 6HR PCP:  0.86;

MANITOWOC      LGT RAIN  53  53 100 SE5       29.92F
6HR MIN TEMP:  53; 6HR MAX TEMP:  57; 6HR PCP:  1.12;

APPLETON       LGT RAIN  55  55 100 E6        29.88F
CLINTONVILLE   LGT RAIN  55  55 100 E6        29.88F
OSHKOSH        CLOUDY    59  57  93 SE7       29.86F FOG
6HR MIN TEMP:  56; 6HR MAX TEMP:  59; 6HR PCP:  0.48;

$$

WIZ032>034-041-042-053>061-250700-
SOUTHWEST WISCONSIN

CITY           SKY/WX    TMP DP  RH WIND       PRES   REMARKS
LA CROSSE      LGT RAIN  60  58  92 E5        29.77F FOG
6HR MIN TEMP:  60; 6HR MAX TEMP:  61; 6HR PCP:  0.25;

SPARTA         CLOUDY    58  57  95 E8        29.79F FOG
6HR MIN TEMP:  57; 6HR MAX TEMP:  58; 6HR PCP:  0.02;

VIROQUA        CLOUDY    59  59 100 SE13G18   29.79F VSB 1/2
6HR MIN TEMP:  57; 6HR MAX TEMP:  59; 6HR PCP:  0.02;

BOSCOBEL       CLOUDY    61  59  93 N3        29.79F FOG
6HR MIN TEMP:  60; 6HR MAX TEMP:  62; 6HR PCP:  0.04;

PRAIRIE DU CHI CLOUDY    66  63  90 SE9       29.76F
6HR MIN TEMP:  61; 6HR MAX TEMP:  66; 6HR PCP:  0.08;

PLATTEVILLE    CLOUDY    64  63  98 SE7       29.80F
6HR MIN TEMP:  61; 6HR MAX TEMP:  64; 6HR PCP:  0.16;

$$

WIZ056-057-062-063-064-067-068-250700-
SOUTH CENTRAL WISCONSIN

CITY           SKY/WX    TMP DP  RH WIND       PRES   REMARKS
REEDSBURG      CLOUDY    58  58  99 CALM      29.81F FOG
6HR MIN TEMP:  56; 6HR MAX TEMP:  58; 6HR PCP:  0.03;

BARABOO/DELLS  CLOUDY    58  56  94 CALM      29.82F FOG
6HR MIN TEMP:  55; 6HR MAX TEMP:  58; 6HR PCP:  0.03;

LONE ROCK      CLOUDY    61  59  93 E7        29.82F FOG
6HR MIN TEMP:  59; 6HR MAX TEMP:  61; 6HR PCP:  0.02;

MINERAL POINT  CLOUDY    64  63  94 SE7       29.82F FOG
MADISON        LGT RAIN  63  61  93 S8        29.83F FOG
6HR MIN TEMP:  57; 6HR MAX TEMP:  61; 6HR PCP:  0.13;

MIDDLETON      CLOUDY    61  61  99 SE5       29.84F
WATERTOWN      CLOUDY    60  60 100 SE5       29.86F FOG
6HR MIN TEMP:  56; 6HR MAX TEMP:  60;

MONROE         LGT RAIN  66  64  94 S13       29.84F
JANESVILLE     RAIN      64  63  94 SE6       29.85F
$$

WIZ051-052-058>065-066-070>072-250700-
SOUTHEAST WISCONSIN

CITY           SKY/WX    TMP DP  RH WIND       PRES   REMARKS
MILWAUKEE      CLOUDY    58  56  93 NW6       29.90F FOG
6HR MIN TEMP:  53; 6HR MAX TEMP:  59; 6HR PCP:  0.12;

WAUKESHA       DRIZZLE   55  55 100 SE3       29.90F
MILWAUKEE/TIMM RAIN      57  54  88 SE3       29.89F
RACINE         MOCLDY    58  56  93 CALM      29.90F FOG
6HR MIN TEMP:  53; 6HR MAX TEMP:  62; 6HR PCP:  0.14;

BURLINGTON     LGT RAIN  59  59  99 E3        29.88F
6HR MIN TEMP:  56; 6HR MAX TEMP:  60; 6HR PCP:  0.36;

KENOSHA        MOCLDY    64  61  90 S3        29.89F
6HR MIN TEMP:  55; 6HR MAX TEMP:  64; 6HR PCP:  0.15;

FOND DU LAC    CLOUDY    59  56  89 SE7       29.86F
6HR MIN TEMP:  57; 6HR MAX TEMP:  59; 6HR PCP:  0.57;

SHEBOYGAN      LGT RAIN  54  54 100 CALM      29.90F FOG
6HR MIN TEMP:  54; 6HR MAX TEMP:  57; 6HR PCP:  0.86;

WEST BEND      RAIN      55  54  94 CALM      29.88F
JUNEAU         CLOUDY    59  58  98 SE9       29.87F FOG
6HR MIN TEMP:  55; 6HR MAX TEMP:  59; 6HR PCP:  0.59;

$$

LSZ147-162-250700-
LAKE SUPERIOR

STATION/POSITION TIME  TEMP    WIND        PRES    WAVE
                       AIR SEA DIR/SP/G            HT/PER
                 (UTC) (F)     (DEG/KT/KT) (MB)    (FT/S)
W MID LAKE BUOY  0550   46 37   10/  4/  4   N/A     0
DEVILS ISLAND    0600   60     120/  2/  2   N/A
PORT WING        0500   51      40/  8/ 10   N/A
SAXON HARBOR     0540   55        CALM       N/A
$$

LMZ867-665-643>646-250700-
LAKE MICHIGAN

STATION/POSITION TIME  TEMP    WIND        PRES    WAVE
                       AIR SEA DIR/SP/G            HT/PER
                 (UTC) (F)     (DEG/KT/KT) (MB)    (FT/S)
CHAMBERS ISLAND  0500   54      60/  7/ 10   N/A


USA.gov is the U.S. government's official web portal to all federal, state and local government web resources and services.